Weather in Karaulnaya Gora

Russia / Republic of Tatarstan     54°32′03″N   50°40′40″E
temp.,
°C
wind,
m/s
gust,
m/s
humid.,
%
clouds,
%
prec.,
mm/h
press.,
hPa
HPBL,
m
15 april, thu
thu1500:00+10se36871 0.0 102498
03:00+9sse35830 0.0 102364
06:00+9se37740 0.0 1023134
09:00+15sse56550 0.0 1022393
12:00+19sse56416 0.0 1020826
15:00+20s563610 0.0 10191287
18:00+17s33480 0.0 101920
21:00+13s22585 0.0 101912
16 april, fri
fri1600:00+11s116417 0.0 101910
03:00+10sse116514 0.0 101910
06:00+10ene336843 0.0 102035
09:00+14ne555759 0.0 1021488
12:00+17ne655324 0.0 1021971
15:00+17ne55516 0.0 10211147
18:00+14ne69645 0.0 1022387
21:00+10ne612765 0.0 1023343
17 april, sat
sat1700:00+8ne511845 0.0 1024317
03:00+7ene5108079 0.0 1025340
06:00+6ne510795 0.0 1025371
09:00+10ne68515 0.0 1026675
12:00+13ne67360 0.0 10251109
15:00+14ene66320 0.0 10241283
18:00+11ne48440 0.0 1024229
21:00+7ne49550 0.0 1025175
18 april, sun
sun1800:00+5ne49630 0.0 1024157
03:00+4ne37670 0.0 1024119
06:00+5ne48670 0.0 1024230
09:00+10ene56463 0.0 1023845
12:00+13ne56380 0.0 10221279
15:00+13ne663523 0.0 10221673
18:00+11ne694995 0.0 1022426
21:00+7ene71261100 0.0 1024713
19 april, mon
mon1900:00+4ene6115084 0.0 1027530
03:00+2ene6125898 0.0 1028442
06:00+2ene71359100 0.0 1029656
09:00+5e91146100 0.0 10291173
12:00+7e8938100 0.0 10291641
15:00+8e7837100 0.0 10281876
18:00+7e61041100 0.0 1028730
21:00+5ene61144100 0.0 1029473